Location: Beazer
(49.1167°N, 113.4833°W)
Time: 17:43:06
(UTC+00:00)

Envisat - Visible Passes

Search period start: 27 November 2021 00:00
Search period end: 07 December 2021 00:00
Orbit: 764 x 766 km, 98.2° (Epoch: 26 November)

Date Brightness Start Highest point End Pass type
(mag) Time Alt. Az. Time Alt. Az. Time Alt. Az.
27 Nov 6.0 01:12:12 10° WSW 01:15:00 15° W 01:17:49 10° NW visible
27 Nov 5.3 11:35:36 10° NE 11:39:31 22° E 11:43:24 10° SE visible
27 Nov 3.0 13:13:55 10° N 13:18:54 58° WNW 13:23:52 10° SSW visible
28 Nov 5.2 00:33:19 10° SSW 00:37:43 29° W 00:42:09 10° NNW visible
28 Nov 6.1 11:01:21 10° ENE 11:02:08 10° E 11:02:56 10° E visible
28 Nov 3.2 12:36:59 10° NNE 12:42:05 72° ESE 12:47:09 10° S visible
28 Nov 4.2 14:16:59 10° NNW 14:20:35 20° WNW 14:24:10 10° WSW visible
29 Nov 4.5 12:00:23 10° NNE 12:05:03 35° E 12:09:41 10° SSE visible
29 Nov 3.5 13:39:27 10° N 13:44:04 36° WNW 13:48:41 10° SW visible
30 Nov 5.9 00:59:50 10° SW 01:03:18 18° W 01:06:47 10° NW visible
30 Nov 5.6 11:24:25 10° NE 11:27:50 18° E 11:31:13 10° SE visible
30 Nov 2.9 13:02:18 10° N 13:07:23 71° WNW 13:12:26 10° SSW visible
01 Dec 4.8 00:21:25 10° SSW 00:26:05 36° W 00:30:47 10° NNW visible
01 Dec 3.5 12:25:28 10° NNE 12:30:30 58° E 12:35:30 10° S visible
01 Dec 4.0 14:05:10 10° N 14:09:09 24° WNW 14:13:08 10° WSW visible
02 Dec 6.3 01:27:47 10° W 01:28:59 11° W 01:30:11 10° WNW visible
02 Dec 4.9 11:49:01 10° NE 11:53:25 29° E 11:57:47 10° SSE visible
02 Dec 3.3 13:27:46 10° N 13:32:36 44° WNW 13:37:23 10° SW visible
03 Dec 5.6 00:47:40 10° SW 00:51:37 23° W 00:55:35 10° NW visible
03 Dec 5.8 11:13:26 10° NE 11:16:08 14° E 11:18:48 10° ESE visible
03 Dec 2.9 12:50:43 10° NNE 12:55:50 87° WNW 13:00:56 10° SSW visible
03 Dec 4.5 14:31:12 10° NNW 14:34:08 16° NW 14:37:05 10° W visible
04 Dec 4.3 00:09:37 10° S 00:14:27 45° W 00:19:21 10° NNW visible
04 Dec 4.0 12:13:59 10° NNE 12:18:54 46° E 12:23:46 10° S visible
04 Dec 3.8 13:53:24 10° N 13:57:43 28° WNW 14:02:00 10° WSW visible
05 Dec 6.0 01:14:43 10° WSW 01:17:15 14° W 01:19:48 10° NW visible
05 Dec 5.2 11:37:43 10° NE 11:41:45 23° E 11:45:46 10° SE visible
05 Dec 3.0 13:16:08 10° N 13:21:06 54° WNW 13:26:02 10° SW visible
06 Dec 5.3 00:35:38 10° SSW 00:39:57 28° W 00:44:18 10° NW visible
06 Dec 6.1 11:02:54 10° ENE 11:04:24 11° E 11:05:53 10° ESE visible
06 Dec 3.1 12:39:10 10° NNE 12:44:17 77° ESE 12:49:22 10° S visible
06 Dec 4.3 14:19:16 10° NNW 14:22:44 19° WNW 14:26:12 10° W visible
